This demonstration page uses our WeatherBlox Daily Observations layout. Learn more.

Left ArrowRight Arrow

Hourly Observations for January 23, 2021

Temp ( °F °C ) Dew Point ( °F °C ) Humidity (%) Winds ( mph kmh ) Pressure ( in mb ) Visibility ( mi km ) Precip ( " mm )
12:53 am 00:53 Clear 11 -11.7 6 -14.4 81 81 SW 9 15 30.05 1018 10 16 0.00 0.00
1:53 am 01:53 Clear 11 -11.7 6 -14.4 81 81 SW 9 15 30.06 1018 10 16 0.00 0.00
2:53 am 02:53 Clear 8 -13.3 4 -15.6 83 83 SW 8 13 30.07 1018 10 16 0.00 0.00
3:53 am 03:53 Clear 4 -15.6 0 -17.8 83 83 SW 8 13 30.08 1019 10 16 0.00 0.00
4:53 am 04:53 Clear 4 -15.6 0 -17.8 83 83 NW 5 7 30.09 1019 10 16 0.00 0.00
5:53 am 05:53 Clear 5 -15 2 -16.7 87 87 SW 7 11 30.10 1019 10 16 0.00 0.00
6:53 am 06:53 Mostly Clear 6 -14.4 2 -16.7 83 83 SW 5 7 30.13 1020 10 16 0.00 0.00
7:53 am 07:53 Cloudy 7 -13.9 3 -16.1 84 84 W 5 7 30.13 1020 10 16 0.00 0.00
8:53 am 08:53 Cloudy 13 -10.6 9 -12.8 84 84 SW 8 13 30.14 1021 10 16 0.00 0.00
9:53 am 09:53 Cloudy 15 -9.4 11 -11.7 84 84 SW 12 19 30.14 1021 10 16 0.00 0.00
10:53 am 10:53 Cloudy 19 -7.2 14 -10 81 81 SW 9 15 30.14 1021 10 16 0.00 0.00
11:53 am 11:53 Cloudy 22 -5.6 14 -10 71 71 WSW 12 19 30.11 1020 10 16 0.00 0.00
12:53 pm 12:53 Cloudy 24 -4.4 14 -10 65 65 WSW 10 17 30.09 1019 10 16 0.00 0.00
1:53 pm 13:53 Cloudy 27 -2.8 14 -10 58 58 WSW 9 15 30.06 1018 10 16 0.00 0.00
2:53 pm 14:53 Mostly Cloudy 28 -2.2 13 -10.6 53 53 WSW 12 19 30.04 1017 10 16 0.00 0.00
3:53 pm 15:53 Mostly Sunny 29 -1.7 12 -11.1 49 49 WSW 10 17 30.03 1017 10 16 0.00 0.00
4:53 pm 16:53 Sunny 24 -4.4 10 -12.2 55 55 SW 8 13 30.05 1018 10 16 0.00 0.00
5:53 pm 17:53 Clear 17 -8.3 8 -13.3 68 68 SSW 7 11 30.06 1018 10 16 0.00 0.00
6:53 pm 18:53 Clear 13 -10.6 7 -13.9 77 77 SSW 5 7 30.06 1018 10 16 0.00 0.00
7:53 pm 19:53 Clear 11 -11.7 5 -15 77 77 SW 5 7 30.04 1017 10 16 0.00 0.00
8:53 pm 20:53 Clear 13 -10.6 7 -13.9 77 77 Calm 30.01 1016 10 16 0.00 0.00
9:53 pm 21:53 Clear 12 -11.1 7 -13.9 80 80 Calm 29.99 1016 10 16 0.00 0.00
10:53 pm 22:53 Clear 10 -12.2 5 -15 80 80 Calm 29.96 1015 10 16 0.00 0.00
11:53 pm 23:53 Clear 13 -10.6 8 -13.3 81 81 ENE 7 11 29.95 1014 10 16 0.00 0.00

Powered by AerisWeather